FW9314 Weather Reports


time (UTC)temp
F
wind
direction
speed
knots
gust
knots
rain 1hr
in
rain 24hr
in
rain mn
in
humidity
%
barometer
mb
20260505153059 48 50 0.0 1.7 0.02 0.24 0.24 97 1013.3
20260505152557 48 198 0.0 1.7 0.02 0.24 0.24 98 1013.4
20260505152057 47 253 0.0 1.7 0.02 0.24 0.24 97 1013.2
20260505151617 47 0 0.0 1.7 0.02 0.24 0.24 97 1013.1
20260505151059 47 0 0.0 1.7 0.01 0.23 0.23 97 1013.1
20260505150557 47 55 0.0 0.9 0.01 0.23 0.23 97 1013.1
20260505140557 47 25 0.0 0.9 0.09 0.22 0.22 96 1012.7
20260505124559 47 0 0.0 0.9 0.07 0.10 0.10 89 1012.0
20260505124059 48 0 0.0 1.7 0.06 0.09 0.09 88 1012.1
20260505123557 48 131 0.0 1.7 0.05 0.08 0.08 88 1011.9
20260505123100 48 209 0.0 0.9 0.05 0.08 0.08 86 1012.5
20260505122559 48 304 0.0 0.9 0.05 0.08 0.08 85 1012.2
20260505122059 48 307 0.0 0.9 0.05 0.07 0.07 84 1011.5
20260505121557 48 56 0.0 1.7 0.04 0.06 0.06 83 1011.2
20260505121058 49 44 0.9 1.7 0.05 0.05 0.05 81 1010.9
20260505120558 49 0 0.0 1.7 0.04 0.04 0.04 80 1011.2
20260505120112 49 57 0.9 2.6 0.03 0.03 0.03 79 1010.8
20260505115557 49 0 0.9 2.6 0.03 0.03 0.03 79 1012.3
20260505115059 49 283 0.9 2.6 0.03 0.03 0.03 77 1011.4
20260505114601 50 27 0.0 2.6 0.03 0.03 0.03 75 1009.7
20260505114102 50 46 0.0 1.7 0.03 0.03 0.03 73 1009.5
20260505113558 50 38 0.0 1.7 0.03 0.03 0.03 71 1009.4
20260505113056 51 36 0.9 3.5 0.03 0.03 0.03 69 1009.2
20260505112558 52 54 0.0 3.5 0.03 0.03 0.03 67 1009.5
20260505112058 52 26 0.0 3.5 0.02 0.02 0.02 63 1009.6
20260505111556 54 55 0.9 3.5 0.02 0.02 0.02 60 1009.6
20260505111058 54 78 0.9 4.3 0.00 0.00 0.00 53 1009.7
20260505110558 54 57 0.9 4.3 0.00 0.00 0.00 52 1010.0
20260505102058 55 38 0.9 6.1 0.00 0.00 0.00 50 1008.9
20260505101558 55 16 1.7 5.2 0.00 0.00 0.00 50 1008.7
20260505101058 55 58 2.6 5.2 0.00 0.00 0.00 51 1008.3
20260505100558 55 82 1.7 5.2 0.00 0.00 0.00 50 1008.7
20260505100057 55 46 1.7 6.1 0.00 0.00 0.00 50 1009.0
20260505095558 55 324 0.9 7.0 0.00 0.00 0.00 50 1009.1
20260505095057 55 51 3.5 8.7 0.00 0.00 0.00 49 1009.3
20260505094555 55 75 3.5 8.7 0.00 0.00 0.00 49 1009.1
20260505094058 55 20 1.7 9.6 0.00 0.00 0.00 49 1009.0
20260505093558 55 4 2.6 9.6 0.00 0.00 0.00 49 1009.1
20260505093059 55 30 1.7 7.8 0.00 0.00 0.00 49 1009.4
20260505092556 55 54 0.9 7.8 0.00 0.00 0.00 49 1009.2
20260505092058 55 49 2.6 7.8 0.00 0.00 0.00 49 1008.8
20260505091603 55 41 2.6 5.2 0.00 0.00 0.00 49 1009.0
20260505091102 55 58 1.7 4.3 0.00 0.00 0.00 49 1009.1
20260505090557 55 63 0.9 4.3 0.00 0.00 0.00 48 1009.1
20260505090056 56 353 1.7 5.2 0.00 0.00 0.00 48 1009.1
20260505085558 56 32 0.9 6.1 0.00 0.00 0.00 47 1009.2
20260505085057 56 16 1.7 6.1 0.00 0.00 0.00 47 1009.1
20260505084557 56 70 1.7 5.2 0.00 0.00 0.00 47 1008.9
20260505084059 56 55 0.9 5.2 0.00 0.00 0.00 47 1009.0
20260505083641 56 46 1.7 5.2 0.00 0.00 0.00 46 1008.9
20260505083058 56 67 0.9 7.0 0.00 0.00 0.00 46 1008.7
20260505082557 56 34 0.9 7.0 0.00 0.00 0.00 46 1008.7
20260505082058 56 39 0.9 8.7 0.00 0.00 0.00 46 1008.5
20260505081605 56 338 1.7 8.7 0.00 0.00 0.00 46 1008.3
20260505081057 56 67 1.7 7.0 0.00 0.00 0.00 45 1007.8
20260505080557 56 19 0.9 8.7 0.00 0.00 0.00 45 1007.9
20260505080058 56 329 3.5 8.7 0.00 0.00 0.00 45 1007.5
20260505075557 56 36 2.6 5.2 0.00 0.00 0.00 45 1007.5
20260505075058 56 39 1.7 5.2 0.00 0.00 0.00 46 1007.5
20260505074559 57 32 0.9 5.2 0.00 0.00 0.00 46 1007.5
20260505074057 57 72 1.7 7.0 0.00 0.00 0.00 46 1007.4
20260505073558 57 16 1.7 7.8 0.00 0.00 0.00 46 1007.8
20260505073111 57 5 2.6 7.8 0.00 0.00 0.00 47 1007.7
20260505072558 57 46 0.9 7.0 0.00 0.00 0.00 47 1007.6
20260505072057 57 39 1.7 7.0 0.00 0.00 0.00 47 1007.6
20260505071600 57 36 0.9 7.8 0.00 0.00 0.00 47 1007.5
20260505071058 57 51 2.6 9.6 0.00 0.00 0.00 47 1007.6
20260505070559 58 4 4.3 9.6 0.00 0.00 0.00 46 1007.8
20260505070058 58 340 2.6 7.0 0.00 0.00 0.00 46 1008.0
20260505065558 58 58 1.7 7.0 0.00 0.00 0.00 47 1008.2
20260505065058 58 97 1.7 7.8 0.00 0.00 0.00 47 1008.4
20260505064558 58 55 0.9 8.7 0.00 0.00 0.00 47 1008.5
20260505064057 58 32 2.6 8.7 0.00 0.00 0.00 47 1008.5
20260505063558 58 65 2.6 10.4 0.00 0.00 0.00 48 1008.0
20260505063059 58 337 3.5 10.4 0.00 0.00 0.00 48 1007.6
20260505062558 58 70 3.5 9.6 0.00 0.00 0.00 48 1007.8
20260505062058 58 76 2.6 5.2 0.00 0.00 0.00 49 1008.5
20260505061609 58 335 0.9 2.6 0.00 0.00 0.00 52 1009.0
20260505061058 59 0 0.9 2.6 0.00 0.00 0.00 53 1008.6
20260505060558 59 20 0.0 2.6 0.00 0.00 0.00 52 1008.0
20260505060059 60 59 0.9 4.3 0.00 0.00 0.00 51 1008.0
20260505055600 60 330 0.9 4.3 0.00 0.00 0.00 50 1008.1
20260505055058 61 78 0.9 6.1 0.00 0.00 0.00 48 1007.9
20260505054626 62 354 0.9 8.7 0.00 0.00 0.00 45 1007.1
20260505054057 63 358 2.6 8.7 0.00 0.00 0.00 43 1006.6
20260505053557 63 64 3.5 8.7 0.00 0.00 0.00 40 1006.2
20260505053113 64 39 3.5 9.6 0.00 0.00 0.00 40 1006.0
20260505052558 64 25 3.5 10.4 0.00 0.00 0.00 40 1005.9
20260505052058 64 78 4.3 10.4 0.00 0.00 0.00 40 1005.7
20260505051600 65 357 3.5 7.8 0.00 0.00 0.00 39 1005.5
20260505051059 65 57 2.6 5.2 0.00 0.00 0.00 39 1005.2
20260505050558 66 340 1.7 8.7 0.00 0.00 0.00 40 1005.1
20260505050105 66 41 3.5 9.6 0.00 0.00 0.00 40 1005.0
20260505041601 69 27 2.6 6.1 0.00 0.00 0.00 38 1004.6
20260505041055 69 39 1.7 7.0 0.00 0.00 0.00 38 1004.4
20260505040557 69 50 1.7 10.4 0.00 0.00 0.00 38 1004.3
20260505040101 69 22 0.9 12.2 0.00 0.00 0.00 38 1004.1
20260505035557 70 30 2.6 12.2 0.00 0.00 0.00 38 1004.4
20260505035058 70 341 1.7 7.0 0.00 0.00 0.00 38 1004.5
20260505034559 71 61 2.6 6.1 0.00 0.00 0.00 39 1004.4
20260505034057 71 58 1.7 7.0 0.00 0.00 0.00 39 1004.3
20260505033558 72 18 1.7 7.8 0.00 0.00 0.00 39 1004.2
20260505033100 72 67 2.6 7.8 0.00 0.00 0.00 39 1004.2
20260505032557 72 83 2.6 7.8 0.00 0.00 0.00 39 1004.0
20260505032058 72 51 1.7 7.0 0.00 0.00 0.00 41 1003.9
20260505031610 72 29 1.7 7.0 0.00 0.00 0.00 43 1003.9
20260505031057 72 353 1.7 7.0 0.00 0.00 0.00 44 1003.7
20260505030557 71 64 1.7 7.0 0.00 0.00 0.00 51 1003.8
20260505030059 70 58 0.9 7.0 0.00 0.00 0.00 54 1003.5
20260505025558 69 49 1.7 3.5 0.00 0.00 0.00 62 1003.5
20260505025056 69 19 0.9 2.6 0.00 0.00 0.00 67 1003.2
20260505024601 69 41 0.0 2.6 0.00 0.00 0.00 70 1003.1
20260505024101 69 354 0.0 0.9 0.00 0.00 0.00 70 1002.8
20260505023558 69 0 0.0 0.0 0.00 0.00 0.00 68 1002.6
20260505023120 70 0 0.0 0.0 0.00 0.00 0.00 67 1002.5
20260505022558 70 0 0.0 0.9 0.00 0.00 0.00 67 1002.4
20260505022058 70 0 0.0 0.9 0.00 0.00 0.00 67 1002.3
20260505021559 70 0 0.0 0.9 0.00 0.00 0.00 67 1002.3
20260505021057 70 256 0.0 0.9 0.00 0.00 0.00 68 1002.3
20260505020557 70 0 0.0 0.9 0.00 0.00 0.00 68 1002.2
20260505020057 70 0 0.0 0.0 0.00 0.00 0.00 67 1002.0
20260505015609 71 0 0.0 0.0 0.00 0.00 0.00 66 1002.0
20260505015058 71 0 0.0 0.0 0.00 0.00 0.00 65 1001.8
20260505014608 71 0 0.0 0.0 0.00 0.00 0.00 64 1001.7
20260505014057 72 0 0.0 0.0 0.00 0.00 0.00 62 1001.7
20260505013558 72 0 0.0 0.0 0.00 0.00 0.00 62 1001.7
20260505013110 72 0 0.0 0.0 0.00 0.00 0.00 62 1001.6
20260505012558 72 0 0.0 0.0 0.00 0.00 0.00 61 1001.7
20260505012057 73 0 0.0 0.0 0.00 0.00 0.00 61 1001.6
20260505011600 73 0 0.0 0.0 0.00 0.00 0.00 60 1001.5
20260505011057 74 0 0.0 0.0 0.00 0.00 0.00 59 1001.5
20260505010557 74 0 0.0 0.0 0.00 0.00 0.00 57 1001.4
20260505005558 75 0 0.0 0.0 0.00 0.00 0.00 56 1001.3
20260505005058 76 0 0.0 0.0 0.00 0.00 0.00 55 1001.5
20260505004559 76 0 0.0 0.0 0.00 0.00 0.00 54 1001.4
20260505004101 76 0 0.0 0.9 0.00 0.00 0.00 53 1001.4
20260505003557 77 0 0.0 0.9 0.00 0.00 0.00 53 1001.5
20260505003100 77 0 0.0 0.9 0.00 0.00 0.00 52 1001.4
20260505002559 78 0 0.0 0.9 0.00 0.00 0.00 50 1001.4
20260505002058 78 0 0.0 0.9 0.00 0.00 0.00 50 1001.5
20260505001606 79 162 0.0 4.3 0.00 0.00 0.00 49 1001.4
20260505001058 79 0 0.0 4.3 0.00 0.00 0.00 49 1001.4
20260505000557 79 0 0.0 4.3 0.00 0.00 0.00 47 1001.4
20260505000116 80 0 0.0 0.9 0.00 0.00 0.00 47 1001.5
20260504235558 80 0 0.0 0.9 0.00 0.00 0.00 46 1001.5
20260504235058 80 0 0.0 0.9 0.00 0.00 0.00 45 1001.6
20260504234558 80 0 0.0 2.6 0.00 0.00 0.00 44 1001.4
20260504234057 81 0 0.0 2.6 0.00 0.00 0.00 43 1001.5
20260504233557 81 0 0.9 2.6 0.00 0.00 0.00 42 1001.6
20260504233101 81 39 0.0 3.5 0.00 0.00 0.00 43 1001.5
20260504232558 81 124 0.9 3.5 0.00 0.00 0.00 42 1001.6
20260504232100 82 207 0.9 3.5 0.00 0.00 0.00 42 1001.6
20260504231557 82 0 0.9 2.6 0.00 0.00 0.00 41 1001.6
20260504231057 82 0 0.0 3.5 0.00 0.00 0.00 43 1001.6
20260504230558 82 118 0.0 3.5 0.00 0.00 0.00 42 1001.4
20260504230108 82 155 0.0 1.7 0.00 0.00 0.00 42 1001.5
20260504225558 82 143 0.0 1.7 0.00 0.00 0.00 41 1001.5
20260504225158 82 147 0.0 4.3 0.00 0.00 0.00 41 1001.4
20260504224600 82 0 0.9 4.3 0.00 0.00 0.00 42 1001.4
20260504224058 83 166 0.9 3.5 0.00 0.00 0.00 40 1001.3
20260504223558 83 0 0.0 2.6 0.00 0.00 0.00 39 1001.3
20260504223105 84 159 0.0 4.3 0.00 0.00 0.00 39 1001.4
20260504222558 84 0 0.9 4.3 0.00 0.00 0.00 36 1001.3
20260504222058 85 141 0.0 4.3 0.00 0.00 0.00 34 1001.2
20260504221608 85 104 0.0 4.3 0.00 0.00 0.00 35 1001.3
20260504221058 86 246 0.9 4.3 0.00 0.00 0.00 35 1001.2
20260504220557 85 167 1.7 4.3 0.00 0.00 0.00 36 1001.3
20260504220101 86 257 0.9 4.3 0.00 0.00 0.00 34 1001.3
20260504215559 86 122 0.9 4.3 0.00 0.00 0.00 36 1001.3
20260504215057 86 122 0.9 4.3 0.00 0.00 0.00 36 1001.3
20260504214600 86 128 0.9 4.3 0.00 0.00 0.00 37 1001.4
20260504214057 85 175 0.9 3.5 0.00 0.00 0.00 38 1001.4
20260504213558 86 102 0.9 2.6 0.00 0.00 0.00 38 1001.5
20260504213105 86 165 0.0 2.6 0.00 0.00 0.00 40 1001.7
20260504212558 85 120 0.0 3.5 0.00 0.00 0.00 40 1001.6
20260504212100 85 95 0.9 4.3 0.00 0.00 0.00 39 1001.5
20260504211614 85 283 0.9 4.3 0.00 0.00 0.00 42 1001.5
20260504211057 85 173 0.0 2.6 0.00 0.00 0.00 41 1001.6
20260504210557 85 352 0.9 2.6 0.00 0.00 0.00 40 1001.7
20260504210059 85 89 0.0 3.5 0.00 0.00 0.00 41 1001.7
20260504205706 85 102 0.0 3.5 0.00 0.00 0.00 40 1001.8
20260504205100 86 124 0.0 1.7 0.00 0.00 0.00 37 1001.9
20260504204603 86 0 0.9 1.7 0.00 0.00 0.00 35 1001.9
20260504204059 86 0 0.0 1.7 0.00 0.00 0.00 34 1001.9
20260504203600 85 0 0.0 3.5 0.00 0.00 0.00 33 1002.0
20260504203107 85 204 0.0 3.5 0.00 0.00 0.00 37 1002.1
20260504202557 85 143 0.0 2.6 0.00 0.00 0.00 35 1002.2
20260504202058 85 307 0.0 2.6 0.00 0.00 0.00 39 1002.2
20260504201600 85 167 0.0 4.3 0.00 0.00 0.00 36 1002.1
20260504201102 85 0 0.0 4.3 0.00 0.00 0.00 36 1002.3
20260504200558 85 270 0.9 4.3 0.00 0.00 0.00 33 1002.3
20260504200058 86 288 0.0 2.6 0.00 0.00 0.00 35 1002.4
20260504195558 86 155 0.0 3.5 0.00 0.00 0.00 37 1002.4
20260504195057 85 0 0.0 4.3 0.00 0.00 0.00 35 1002.4
20260504194559 85 287 0.9 4.3 0.00 0.00 0.00 33 1002.3
20260504194057 86 224 0.9 4.3 0.00 0.00 0.00 36 1002.2
20260504193557 86 0 0.0 4.3 0.00 0.00 0.00 34 1002.3
20260504193102 86 0 0.9 4.3 0.00 0.00 0.00 35 1002.4
20260504192600 86 308 0.9 3.5 0.00 0.00 0.00 37 1002.3
20260504192059 86 215 0.9 3.5 0.00 0.00 0.00 37 1002.3
20260504191608 86 160 1.7 3.5 0.00 0.00 0.00 35 1002.3
20260504191058 86 219 0.9 2.6 0.00 0.00 0.00 36 1002.3
20260504190558 86 298 0.0 2.6 0.00 0.00 0.00 34 1002.2
20260504190117 85 153 0.9 3.5 0.00 0.00 0.00 31 1002.5
20260504185557 85 294 0.0 3.5 0.00 0.00 0.00 34 1002.4
20260504185057 84 259 0.0 3.5 0.00 0.00 0.00 35 1002.3
20260504184558 84 287 0.9 3.5 0.00 0.00 0.00 33 1002.2
20260504184058 84 312 0.0 5.2 0.00 0.00 0.00 37 1002.4
20260504183600 84 126 1.7 5.2 0.00 0.00 0.00 38 1002.3
20260504183106 83 120 0.0 4.3 0.00 0.00 0.00 39 1002.5
20260504182557 83 284 2.6 4.3 0.00 0.00 0.00 36 1002.5
20260504182101 84 134 0.0 2.6 0.00 0.00 0.00 37 1002.6
20260504181603 83 158 0.9 3.5 0.00 0.00 0.00 36 1002.6
20260504181057 83 115 0.9 3.5 0.00 0.00 0.00 37 1002.6
20260504180557 83 260 0.0 5.2 0.00 0.00 0.00 39 1002.5
20260504180117 83 256 0.9 5.2 0.00 0.00 0.00 39 1002.7
20260504175602 83 109 0.9 3.5 0.00 0.00 0.00 41 1002.7
20260504175058 83 235 0.0 3.5 0.00 0.00 0.00 41 1002.6
20260504174601 82 290 1.7 3.5 0.00 0.00 0.00 39 1002.7
20260504174058 83 0 0.9 2.6 0.00 0.00 0.00 40 1002.8
20260504173558 83 85 0.0 1.7 0.00 0.00 0.00 42 1002.8
20260504173106 83 256 0.0 3.5 0.00 0.00 0.00 42 1002.7
20260504172557 82 236 0.9 3.5 0.00 0.00 0.00 40 1002.8
20260504172057 82 293 0.0 3.5 0.00 0.00 0.00 41 1002.9
20260504171602 81 85 0.0 3.5 0.00 0.00 0.00 42 1003.1
20260504171059 81 276 0.9 3.5 0.00 0.00 0.00 39 1003.0
20260504170558 80 0 0.9 3.5 0.00 0.00 0.00 44 1003.1
20260504160107 76 271 0.0 5.2 0.00 0.00 0.00 45 1003.1